Regional Weather Roundup
Issued by NWS

Home | Current Version | Previous Version | Graphics & Text | Print | Product List | Glossary On
Versions: 1 2 3 4 5 6 7 8 9 10 11 12 13 14 15 16 17 18 19 20 21 22 23 24 25 26 27 28 29 30 31 32 33 34 35 36 37 38 39 40 41 42 43 44 45 46 47 48 49 50
611
ASUS44 KMEG 192110
RWRTN
TENNESSEE HOURLY STATE WEATHER ROUNDUP
NATIONAL WEATHER SERVICE MEMPHIS TN
300 PM CST SUN NOV 19 2017

TNZ002-004-019-021-049-052-054-088>092-192200-
WEST TENNESSEE

CITY           SKY/WX    TMP DP  RH WIND       PRES   REMARKS
MEMPHIS INTL   SUNNY     50  24  36 N13       30.20S
NWS MEMPHIS      N/A     49 N/A N/A MISG        N/A
JACKSON        SUNNY     47  27  45 NW13      30.20S
DYERSBURG      SUNNY     46  24  42 N7        30.22S
COVINGTON      SUNNY     46  25  42 N10G18    30.21F
UNION CITY     SUNNY     45  23  42 N14       30.20S
BOLIVAR        SUNNY     48  27  43 NW9       30.18S
HUNTINGDON     SUNNY     45  27  49 NW7       30.18R
LEXINGTON      SUNNY     46  25  42 NW10G16   30.17S
SELMER         SUNNY     48  27  43 VRB7G14   30.17R
SAVANNAH       SUNNY     48  27  43 N12       30.16R
$$

TNZ008-025-027-028-033-062-065-066-192200-
NORTH MIDDLE TENNESSEE

CITY           SKY/WX    TMP DP  RH WIND       PRES   REMARKS
NASHVILLE      SUNNY     48  19  31 NW9       30.16R
PORTLAND       SUNNY     45  23  42 W9G17     30.15R
CLARKSVILLE    SUNNY     45  21  38 NW14G20   30.18R
SMYRNA         SUNNY     46  20  35 NW13      30.16R
COOKEVILLE     SUNNY     45  25  45 NW7       30.09R
GALLATIN       SUNNY     46  23  39 NW9G20    30.18R
CROSSVILLE     SUNNY     42  27  55 W10G20    30.06F
$$

TNZ061-075-076-078-094-096-097-192200-
SOUTH MIDDLE TENNESSEE

CITY           SKY/WX    TMP DP  RH WIND       PRES   REMARKS
FAYETTEVILLE   SUNNY     48  28  46 NW8       30.09S
TULLAHOMA      SUNNY     45  28  53 NW6       30.09S
WINCHESTER     SUNNY     45  28  53 CALM      30.10S
MCMINNVILLE    SUNNY     45  23  42 W8        30.09S
COLUMBIA       SUNNY     46  23  39 NW8G15    30.13R
SHELBYVILLE    SUNNY     46  28  49 NW8       30.11S
$$

TNZ017-018-042-046-047-192200-
NORTHEAST TENNESSEE

CITY           SKY/WX    TMP DP  RH WIND       PRES   REMARKS
TRI CITIES     PTSUNNY   41  28  60 W10       30.03R
ELIZABETHTON   CLOUDY    41  28  60 VRB7G22   30.02R
$$

TNZ012-013-036-069-073-074-192200-
CENTRAL EAST TENNESSEE

CITY           SKY/WX    TMP DP  RH WIND       PRES   REMARKS
KNOXVILLE      MOSUNNY   46  33  60 W12       30.05F
OAK RIDGE      SUNNY     46  29  51 VRB7      30.07F
DOWNTOWN KNOXV CLOUDY    48  30  49 W6G15     30.06F
GATLINBURG     MOSUNNY   46  28  49 SW7       30.05F
MORRISTOWN     MOSUNNY   45  28  53 NW6G15    30.04S
JACKSBORO      PTSUNNY   45  30  57 VRB3      30.10R
$$

TNZ083-085-099-192200-
SOUTHEAST TENNESSEE

CITY           SKY/WX    TMP DP  RH WIND       PRES   REMARKS
CHATTANOOGA    SUNNY     51  26  37 NW7       30.08F
$$

SKY/WX REPORTED AS FAIR MEANS FEW OR NO CLOUDS BELOW
12 THOUSAND FEET.





USA.gov is the U.S. government's official web portal to all federal, state and local government web resources and services.